User: anonymous   Login
Location: Unspecified
(0.0000°N, 0.0000°E)
Time: 23:26:22
(UTC+00:00)
Language:

COSMOS 1408 DEB - Orbit

View from above orbital plane
View from above orbital plane
View from above satellite
View from above satellite

Ground track
Ground track

The orbit data is extracted from the following two-line orbital elements,

1 49700U 82092GV  22222.45486172  .00021277  00000-0  88470-3 0  9997
2 49700  82.6014 223.4726 0091891 200.4641 159.2905 15.19787551 39219
Epoch (UTC): 10 August 2022 10:55:00
Eccentricity: 0.0091891
inclination: 82.6014°
perigee height: 443 km
apogee height: 570 km
right ascension of ascending node: 223.4726°
argument of perigee: 200.4641°
revolutions per day: 15.19787551
mean anomaly at epoch: 159.2905°
orbit number at epoch: 3921

The dashed part of the orbit path shows where the satellite is in the earth's shadow,  

DLR